Methuen, Massachusetts, United States (01844)
Lat: 42.73N, Lon: 71.19W
Wx Zone: MAZ006
Local Info
Past Weather Observations for Tuesday, April 15, 2014

NOTE: This archive is for the closest National Weather Service station to Methuen. Information may differ from the station used for current weather conditions.

Time Weather Temperature Dewpoint Humidity Pressure Winds Precip Visibility
23:54
Overcast
Light Rain
39°F / 4°C 36°F / 2°C 87% 29.8 in
(1009 mb)
W 16.1 mph
(W 26 kph)
0.04 in
(1.02 mm)
4SM
23:51
Overcast
Light Rain
39°F / 4°C 36°F / 2°C 87% 29.8 in
(1009 mb)
W 12.7 mph
(W 20 kph)
0.04 in
(1.02 mm)
4SM
22:54
Overcast
Light Rain
43°F / 6°C 37°F / 3°C 81% 29.74 in
(1007 mb)
W 17.3 mph
(W 28 kph)
0.11 in
(2.79 mm)
10SM
22:33
Overcast
Rain
43°F / 6°C 39°F / 4°C 87% 29.74 in
(1007 mb)
W 17.3 mph
(W 28 kph)
0.09 in
(2.29 mm)
4SM
22:21
Overcast
Light Rain
45°F / 7°C 39°F / 4°C 81% 29.71 in
(1006 mb)
W 16.1 mph
(W 26 kph)
0.07 in
(1.78 mm)
4SM
22:12
Overcast
Rain
45°F / 7°C 41°F / 5°C 87% 29.71 in
(1006 mb)
W 15 mph
(W 24 kph)
0.05 in
(1.27 mm)
2 1/2SM
22:01
Overcast
Rain
45°F / 7°C 41°F / 5°C 87% 29.71 in
(1006 mb)
NW 12.7 mph
(NW 20 kph)
0.02 in
(0.51 mm)
2 1/2SM
21:54
Overcast
Rain
45°F / 7°C 41°F / 5°C 87% 29.68 in
(1005 mb)
NW 16.1 mph
(NW 26 kph)
0.08 in
(2.03 mm)
2 1/2SM
20:54
Overcast
Light Rain
52°F / 11°C 48°F / 9°C 88% 29.65 in
(1004 mb)
NW 16.1 mph
(NW 26 kph)
0.05 in
(1.27 mm)
3SM
20:35
Overcast
Light Rain
54°F / 12°C 50°F / 10°C 88% 29.65 in
(1004 mb)
WNW 12.7 mph
(WNW 20 kph)
0.04 in
(1.02 mm)
4SM
20:16
Overcast
Light Rain
57°F / 14°C 54°F / 12°C 88% 29.62 in
(1003 mb)
W 16.1 mph
(W 26 kph)
0.03 in
(0.76 mm)
6SM
20:07
Overcast
Light Rain
59°F / 15°C 55°F / 13°C 88% 29.59 in
(1002 mb)
SSW 11.5 mph
(SSW 19 kph)
0.02 in
(0.51 mm)
3SM
19:54
Overcast
Light Rain
61°F / 16°C 57°F / 14°C 88% 29.59 in
(1002 mb)
S 11.5 mph
(S 19 kph)
0.03 in
(0.76 mm)
7SM
19:37
Overcast
Light Rain
61°F / 16°C 57°F / 14°C 88% 29.59 in
(1002 mb)
S 8.1 mph
(S 13 kph)
0.02 in
(0.51 mm)
10SM
18:54
Overcast
Light Rain
63°F / 17°C 57°F / 14°C 83% 29.56 in
(1001 mb)
S 13.8 mph
(S 22 kph)
0.00 in
(0.00 mm)
10SM
17:54
Overcast
63°F / 17°C 57°F / 14°C 83% 29.56 in
(1001 mb)
SSE 16.1 mph
(SSE 26 kph)
0.00 in
(0.00 mm)
10SM
16:54
Overcast
Light Rain
64°F / 18°C 57°F / 14°C 78% 29.56 in
(1001 mb)
SSE 23 mph
(SSE 37 kph)
0.00 in
(0.00 mm)
10SM
16:26
Overcast
Light Rain
63°F / 17°C 57°F / 14°C 83% 29.59 in
(1002 mb)
S 13.8 mph
(S 22 kph)
0.00 in
(0.00 mm)
10SM
15:54
Overcast
Light Rain
63°F / 17°C 57°F / 14°C 83% 29.59 in
(1002 mb)
S 12.7 mph
(S 20 kph)
0.01 in
(0.25 mm)
10SM
14:54
Overcast
Light Rain
63°F / 17°C 57°F / 14°C 83% 29.59 in
(1002 mb)
S 18.4 mph
(S 30 kph)
0.05 in
(1.27 mm)
4SM
14:43
Overcast
Light Rain
63°F / 17°C 57°F / 14°C 83% 29.59 in
(1002 mb)
S 11.5 mph
(S 19 kph)
0.04 in
(1.02 mm)
4SM
14:36
Overcast
Light Rain
63°F / 17°C 57°F / 14°C 83% 29.62 in
(1003 mb)
S 21.9 mph
(S 35 kph)
0.03 in
(0.76 mm)
2 1/2SM
13:54
Overcast
Light Rain
63°F / 17°C 57°F / 14°C 83% 29.62 in
(1003 mb)
S 16.1 mph
(S 26 kph)
0.04 in
(1.02 mm)
3SM
12:54
Overcast
Light Rain
63°F / 17°C 57°F / 14°C 83% 29.68 in
(1005 mb)
S 18.4 mph
(S 30 kph)
0.02 in
(0.51 mm)
3SM
12:42
Overcast
Light Rain
64°F / 18°C 55°F / 13°C 73% 29.68 in
(1005 mb)
S 23 mph
(S 37 kph)
0.01 in
(0.25 mm)
2 1/2SM
12:36
Overcast
Light Rain
64°F / 18°C 55°F / 13°C 73% 29.68 in
(1005 mb)
S 20.7 mph
(S 33 kph)
0.00 in
(0.00 mm)
4SM
12:16
Overcast
68°F / 20°C 54°F / 12°C 60% 29.65 in
(1004 mb)
S 18.4 mph
(S 30 kph)
0.00 in
(0.00 mm)
10SM
11:54
Overcast
Light Rain
68°F / 20°C 55°F / 13°C 64% 29.68 in
(1005 mb)
S 13.8 mph
(S 22 kph)
0.00 in
(0.00 mm)
10SM
10:54
Overcast
66°F / 19°C 55°F / 13°C 68% 29.71 in
(1006 mb)
S 18.4 mph
(S 30 kph)
- 10SM
09:54
Overcast
64°F / 18°C 55°F / 13°C 73% 29.74 in
(1007 mb)
S 15 mph
(S 24 kph)
0.00 in
(0.00 mm)
10SM
08:54
Overcast
63°F / 17°C 57°F / 14°C 83% 29.77 in
(1008 mb)
S 13.8 mph
(S 22 kph)
0.00 in
(0.00 mm)
10SM
08:52
Overcast
Light Rain
63°F / 17°C 57°F / 14°C 83% 29.77 in
(1008 mb)
S 11.5 mph
(S 19 kph)
0.00 in
(0.00 mm)
9SM
08:21
Overcast
63°F / 17°C 57°F / 14°C 83% 29.8 in
(1009 mb)
S 16.1 mph
(S 26 kph)
- 10SM
07:54
Overcast
61°F / 16°C 57°F / 14°C 88% 29.8 in
(1009 mb)
SSE 12.7 mph
(SSE 20 kph)
- 8SM
07:17
Overcast
61°F / 16°C 55°F / 13°C 83% 29.8 in
(1009 mb)
S 11.5 mph
(S 19 kph)
- 9SM
06:54
Overcast
Fog And Mist
61°F / 16°C 57°F / 14°C 88% 29.83 in
(1010 mb)
Variable 5.8 mph
(Variable 9 kph)
0.00 in
(0.00 mm)
6SM
06:37
Overcast
Fog And Mist
61°F / 16°C 57°F / 14°C 88% 29.83 in
(1010 mb)
S 10.4 mph
(S 17 kph)
0.00 in
(0.00 mm)
6SM
06:19
Overcast
Fog And Mist
61°F / 16°C 57°F / 14°C 88% 29.83 in
(1010 mb)
S 8.1 mph
(S 13 kph)
- 2SM
05:54
Overcast
Hazy
63°F / 17°C 57°F / 14°C 83% 29.83 in
(1010 mb)
SSE 11.5 mph
(SSE 19 kph)
0.00 in
(0.00 mm)
5SM
04:54
Overcast
63°F / 17°C 55°F / 13°C 77% 29.83 in
(1010 mb)
SSE 12.7 mph
(SSE 20 kph)
- 10SM
03:54
Overcast
64°F / 18°C 55°F / 13°C 73% 29.86 in
(1011 mb)
SW 18.4 mph
(SW 30 kph)
- 10SM
02:54
Overcast
64°F / 18°C 55°F / 13°C 73% 29.86 in
(1011 mb)
SW 15 mph
(SW 24 kph)
- 10SM
01:54
Overcast
64°F / 18°C 55°F / 13°C 73% 29.89 in
(1012 mb)
SW 15 mph
(SW 24 kph)
- 10SM
00:54
Overcast
64°F / 18°C 55°F / 13°C 73% 29.89 in
(1012 mb)
SSE 17.3 mph
(SSE 28 kph)
- 10SM
Time Weather Temperature Dewpoint Humidity Pressure Winds Precip Visibility


Weather for websites

WeatherForYou.com, LLC is not responsible for any damages or problems caused by this service. Current weather conditions are obtained from the closest station including government and personal stations which may have varying degrees of accuracy. Weather forecasts are derived from the NOAA NDFD. Like all things, this site belongs to Jesus Christ... He just trusts me to maintain it. If you have any questions or comments email webmaster@weatherforyou.com

Copyright © 2014, WeatherForYou.com LLC. All rights reserved.